Flag for U.S.A. Weather past 2 weeks in Hudson, Wisconsin, U.S.A.

Now
73 °F

Clear.


Feels Like: 73 °F
Forecast: 69 / 86 °F
Wind: 8 mph from Southeast

Location: St. Paul Downtown Holman Field

Current Time: Aug 20, 2014 at 10:19:19 PM

Latest Report: Aug 20, 2014 at 9:53 PM


Visibility: 10 mi

Pressure: 29.86 "Hg

Humidity: 79%

Dew point: 66 °F

Location of HudsonLocation

Historic Weather in Hudson — Graph

°F

Hudson temperature yesterday

Maximum temperature yesterday: 79 °F (at 3:53 PM)
Minimum temperature yesterday: 64 °F (at 5:53 AM)
Average temperature yesterday: 70 °F

Past Weeks' High & Low Weather Summary

 TemperatureHumidityPressure
High86 °F (Aug 18, 4:53 PM)100% (Aug 12, 5:53 AM)30.14 "Hg (Aug 12, 5:53 AM)
Low56 °F (Aug 12, 5:53 AM)35% (Aug 12, 4:53 PM)29.62 "Hg (Aug 18, 7:53 PM)
Average72 °F72%29.96 "Hg
* Reported Aug 5 8:53 PM — Aug 20 8:53 PM, Hudson, Weather by CustomWeather, © 2014

Note: Actual official high and low records may vary slightly from our data, if they occured in-between our weather recording intervals... More about our weather records

Advertising

Hudson weather history for previous 24 hours

 ConditionsComfort  
Time TempWeatherWind HumidityBarometerVisibility
8:53 PM
Aug 20
75 °FSunny.9 mph74%29.84 "Hg10 mi
7:53 PM76 °FSunny.8 mph72%29.83 "Hg10 mi
6:53 PM78 °FSunny.7 mph64%29.83 "Hg10 mi
5:53 PM80 °FSunny.8 mph60%29.83 "Hg10 mi
4:53 PM81 °FSunny.6 mph58%29.83 "Hg10 mi
3:53 PM81 °FSunny.8 mph56%29.83 "Hg10 mi
2:53 PM81 °FSunny.8 mph56%29.84 "Hg10 mi
1:53 PM79 °FSunny.6 mph65%29.85 "Hg10 mi
12:53 PM79 °FPassing clouds.8 mph62%29.85 "Hg10 mi
11:53 AM76 °FScattered clouds.7 mph72%29.84 "Hg10 mi
10:53 AM74 °FSunny.6 mph74%29.85 "Hg10 mi
9:53 AM73 °FSunny.3 mph76%29.85 "Hg10 mi
8:53 AM69 °FSunny.5 mph84%29.86 "Hg10 mi
7:53 AM66 °FSunny.6 mph90%29.85 "Hg10 mi
6:53 AM65 °FClear.8 mph94%29.81 "Hg10 mi
5:53 AM65 °FClear.5 mph94%29.80 "Hg10 mi
5:04 AM65 °FFog.3 mph97%29.82 "Hg2 mi
4:53 AM65 °FClear.No wind97%29.81 "Hg10 mi
3:53 AM65 °FClear.3 mph97%29.80 "Hg10 mi
3:02 AM65 °FFog.No wind100%29.81 "Hg1 mi
1:53 AM66 °FClear.No wind96%29.78 "Hg7 mi
12:53 AM66 °FPassing clouds.No wind100%29.78 "Hg8 mi
11:53 PM
Aug 19
67 °FPassing clouds.No wind97%29.78 "Hg8 mi
10:53 PM67 °FPassing clouds.3 mph100%29.78 "Hg7 mi
Weather by CustomWeather, © 2014

See weather overviewHow to use our weather pages